www.pogodaiklimat.ru

Погода и климат >> Архив погоды >> Перу >> Наска


ПОГОДА в Наске

  • Прогноз погоды в Наске
  • Монитор погоды в Наске

АРХИВ ПОГОДЫ в Наске

Время (UTC), дата Ветер
(напр.,м/с)
 
Видим.   Явления Облачность Т
(С)
Тd
(С)
f
(%)
Тe
(С)
Тes
(С)
Комфортность P
(гПа)
Po
(гПа)
Тmin
(С)
Tmax
(С)
R
(мм)
R24
(мм)
S
(см)
18 12.01 Ю 5 10 км ясно +29.9 +15.1 41 +32 +44 жарко 1011.0 949.6
21 12.01 Ю 9 5000 м пыльный позёмок ясно +28.5 +16.0 47 +32 +33 душно 1009.6 948.2
12 13.01 1 10 км 5/5 450 м
[St]
+18.6 +16.4 87 +21 +22 комфорт 1014.8 951.0 +19.5
15 13.01 З 3 10 км ясно +25.2 +16.0 57 +29 +44 душно 1012.9 950.5
18 13.01 ЮЗ 3 10 км ясно +30.4 +15.2 40 +33 +50 душно 1009.5 948.6
12 14.01 СВ 2 8000 м ясно +18.1 +15.8 86 +19 +21 1013.2 949.4 +17.3
15 14.01 ЮЗ 2 10 км ясно +24.2 +15.6 59 +27 +44 жарко 1011.2 948.9
18 14.01 ЮЗ 7 6000 м пыльный позёмок ясно +28.8 +15.2 44 +32 +38 душно 1008.4 947.1
21 14.01 Ю 7 5000 м пыльный позёмок ясно +28.1 +15.6 47 +31 +33 душно 1007.6 946.1
12 15.01 1 10 км 3/0 2000 м
[As trans]
+20.1 +16.8 81 +24 +26 комфорт 1014.5 951.0 +17.3
15 15.01 ЮЗ 3 10 км 5/5 1500 м
[St]
+23.0 +16.9 69 +28 +35 душно 1014.5 951.6
18 15.01 1 10 км 8/8 1200 м
[St]
+26.7 +16.8 55 +30 +35 душно 1011.9 948.9
21 15.01 Ю 7 10 км 8/8 1200 м
[St]
+24.2 +16.8 63 +28 +28 душно 1011.1 948.7
00 16.01 Ю 7 10 км 8/8 1200 м
[St]
+24.2 +16.8 63 +28 +28 душно 1011.1 948.7
12 16.01 1 10 км 5/0 2000 м
[As trans]
+18.7 +16.5 87 +21 +23 комфорт 1014.2 950.5 +18.6
15 16.01 ЮЗ 3 10 км ясно +24.5 +16.4 61 +28 +42 душно 1013.1 950.6
21 16.01 Ю 6 10 км 5/0
[As trans]
+29.0 +15.4 44 +32 +34 душно 1008.9 947.6
12 17.01 1 8000 м дымка ясно +18.9 +15.4 80 +21 +24 комфорт 1013.4 949.8 +18.6
15 17.01 ЮЗ 2 10 км {туман} ясно +25.8 +14.8 51 +29 +45 душно 1011.9 949.2
18 17.01 З 6 10 км {туман} ясно +30.3 +14.3 38 +32 +41 жарко 1008.3 947.2
21 17.01 Ю 8 10 км 6/0 2000 м
[As trans]
+25.1 +15.6 56 +28 +29 жарко 1008.9 946.8
12 18.01 1 8000 м мгла 8/0
[As trans]
+19.9 +16.0 78 +24 +25 комфорт 1014.0 950.5 +19.0
15 18.01 З 2 10 км {туман} 8/0 2000 м
[As trans]
+22.4 +16.3 68 +27 +35 душно 1013.7 950.8
18 18.01 СЗ 2 10 км {туман} 8/0 2000 м
[As trans]
+24.8 +16.9 61 +28 +39 жарко 1012.0 949.6
21 18.01 З 3 10 км 8/0 2000 м
[As trans]
+26.1 +16.1 54 +29 +32 жарко 1010.2 948.3
12 19.01 штиль 0 10 км ясно +20.4 +16.5 78 +23 +26 комфорт 1012.8 949.5 +19.0

 

Местоположение метеостанции Наска (Перу): широта -14.86 долгота -74.96 высота над уровнем моря 567 м.

В архиве по умолчанию представлена погода в Наске за последнюю неделю. Архивные данные за месяц целиком и за предыдущие месяцы, начиная с января 2011 года, Вы можете получить, выбрав интересующий диапазон дат из раскрывающегося списка и нажав кнопку "Ввод!".


*Определитесь, кто Вы:
робот инопланетянин человек

Внимание! Время в таблицах - всемирное. Для получения местного времени необходимо прибавить поправку, которая равна -5 ч.

Смотрите также архив погоды в соседних городах и на ближайших метеорологических станциях:

Погода в Писко (Перу) (184 км)
Погода в Аякучо (Перу) (207 км)
Погода в Андауайласе (Перу) (216 км)
Погода в Куско (Перу) (359 км)
Погода в Лиме (Перу) (394 км)
Погода в Арекипе (Перу) (399 км)
Погода в Ило (Перу) (499 км)
Погода в Хульяке (Перу) (521 км)
Погода в Уануко (Перу) (571 км)
Погода в Такне (Перу) (614 км)

Пояснения к столбцам:

Ветер - указаны скорость ветра в м/с - средняя за 10 мин, порывы в срок и между сроками (в фигурных скобках) и направление, откуда дует ветер: С - северный, СВ - северо-восточный, В - восточный, ЮВ - юго-восточный, Ю - южный, ЮЗ - юго-западный, З - западный, СЗ - северо-западный.
Видимость - горизонтальная дальность видимости в метрах или километрах. При видимости от 1 до 10 км при отсутствии осадков обычно наблюдается дымка, при ухудшении видимости до 1 км и менее - туман. В сухую погоду видимость может ухудшаться дымом, пылью или мглою.
Явления - указаны атмосферные явления, наблюдавшиеся в срок или в последний час перед сроком; фигурными скобками обозначены явления, наблюдавшиеся между сроками (за 1-3 часа до срока); квадратными скобками обозначены град или гололедные отложения с указанием их диаметра в мм.
Облачность - указаны через наклонную черту общая и нижняя облачность в баллах и высота нижней границы облаков в метрах; квадратными скобками обозначены формы облаков: Ci - перистые, Cs - перисто-слоистые, Cc - перисто-кучевые, Ac - высококучевые, As - высокослоистые, Sc - слоисто-кучевые, Ns - слоисто-дождевые, Cu - кучевые, Cb - кучево-дождевые. Подробнее классификацию облаков см. в Атласе облаков (PDF).
T - Температура воздуха - температура, измеренная на высоте 2 м над землей.
Td - Температура точки росы - температура, при понижении до которой содержащийся в воздухе водяной пар достигнет насыщения.
f - Относительная влажность воздуха - влажноcть воздуха, измеренная на высоте 2 м над землей.
Te - Эффективная температура - температура, которую ощущает одетый по сезону человек в тени. Характеристика душности погоды. При расчете учитывается влияние влажности воздуха и скорости ветра на теплоощущения человека.
Tes - Эффективная температура на солнце - температура, которую ощущает человек, с поправкой на солнечный нагрев. Характеристика знойности погоды. Зависит от высоты солнца над горизонтом, облачности и скорости ветра. Ночью, в пасмурную погоду, а также при ветре 12 м/с и более поправка равна нулю.
P - Атмосферное давление - приведенное к уровню моря атмосферное давление.
Po - Атмосферное давление - измеренное на уровне метеостанции атмосферное давление.
Tmin - Минимальная температура - минимум температуры воздуха на высоте 2 м над землей.
Tmax - Максимальная температура - максимум температуры воздуха на высоте 2 м над землей.
R - Количество осадков - Количество выпавших осадков за период времени, мм. При наведении курсора мыши на число - период времени, за который выпало указанное количество осадков.
R24 - Количество осадков - Количество выпавших осадков за 24 часа, мм.
S - Снежный покров - Высота снежного покрова, см. При наведении курсора мыши на число - состояние снежного покрова и степень покрытия местности в баллах.